Regional Weather Roundup
Issued by NWS

Home | Current Version | Previous Version | Graphics & Text | Print | Product List | Glossary On
Versions: 1 2 3 4 5 6 7 8 9 10 11 12 13 14 15 16 17 18 19 20 21 22 23 24 25 26 27 28 29 30 31 32 33 34 35 36 37 38 39 40 41 42 43 44 45 46 47 48 49 50
934
ASUS43 KLMK 272102
RWRKY
KENTUCKY REGIONAL WEATHER ROUNDUP
NATIONAL WEATHER SERVICE LOUISVILLE KY
500 PM EDT SUN MAY 27 2018

NOTE "FAIR" INDICATES FEW OR NO CLOUDS BELOW 12,000 FEET
WITH NO SIGNIFICANT WEATHER AND/OR OBSTRUCTIONS TO VISIBILITY.

KYZ001>023-026-027-061>063-070>075-272200-
WESTERN AND SOUTH CENTRAL KENTUCKY

CITY           SKY/WX    TMP DP  RH WIND       PRES   REMARKS
PADUCAH        FAIR      91  69  48 CALM      29.85F HX  96
HENDERSON      FAIR      91  66  43 S3        29.86F HX  93
OWENSBORO      FAIR      91  67  44 CALM      29.87F HX  94
HOPKINSVILLE   LGT RAIN  73  68  84 SW10      29.89F
BOWLING GREEN  CLOUDY    79  72  79 N5        29.89F
GLASGOW        NOT AVBL
$$

KYZ024-025-028>034-038-045-046-053-272200-
NORTH CENTRAL KENTUCKY

CITY           SKY/WX    TMP DP  RH WIND       PRES   REMARKS
LOUISVILLE/SDF PTSUNNY   85  68  56 W9        29.90S
LOUISVILLE/LOU FAIR      87  70  56 CALM      29.90S HX  92
FORT KNOX      FAIR      81  68  63 E16       29.92R
$$

KYZ035>037-039>044-047>052-055>060-089>105-272200-
NORTHEAST KENTUCKY

CITY           SKY/WX    TMP DP  RH WIND       PRES   REMARKS
LEXINGTON      FAIR      76  65  68 S14G21    29.93S THUNDER
COVINGTON      FAIR      86  66  51 N6        29.90F
FRANKFORT      PTSUNNY   86  66  51 E3        29.89F
$$

KYZ054-064>069-076>088-106>120-272200-
SOUTHEAST KENTUCKY

CITY           SKY/WX    TMP DP  RH WIND       PRES   REMARKS
JACKSON        TSTM      70  69  97 CALM      29.96R VSB 1
LONDON         LGT RAIN  74  70  87 W5        29.93F FOG
SOMERSET       NOT AVBL
MIDDLESBORO    FAIR      83  68  59 CALM      29.94S
MONTICELLO     MOCLDY    82  67  60 W8        29.93F
$$





USA.gov is the U.S. government's official web portal to all federal, state and local government web resources and services.